Wind_Speed
11 10 9 9 8 7 6 5 4 3 5 7 9 8 7 7 6 9 13 15 16 15 12 11 8 7 3 6 3 8 6 9 11 12 9 3 0 4 4 6 11 7 10 5 7
10 10 9 9 8 7 6 6 5 5 5 5 8 10 10 8 7 9 15 14 14 11 11 8 6 3 8 6 3 9 8 9 8 9 9 10 5 10 5 8 8 9 11 6 10
10 10 10 10 9 8 8 8 8 7 6 7 7 9 12 11 9 11 15 16 14 9 9 7 9 9 9 8 11 9 4 8 10 8 9 11 10 5 8 12 10 7 5 2 8
11 12 12 12 11 10 10 10 10 9 9 9 9 9 11 14 11 11 13 18 16 9 6 4 6 16 10 14 11 5 6 5 6 5 4 7 10 6 6 12 12 15 6 2 5
10 13 13 14 13 13 13 13 12 12 11 11 10 10 12 16 12 13 14 18 18 13 5 2 6 17 17 16 9 9 5 2 0 2 2 1 5 5 10 9 15 20 19 10 10
6 11 13 15 14 14 14 14 14 13 12 11 10 9 12 17 17 15 17 18 16 14 6 5 5 10 11 8 7 4 6 2 4 3 5 6 3 6 7 6 7 15 18 16 8
5 7 10 13 14 14 13 12 12 11 10 9 8 8 11 16 18 11 17 20 18 18 11 8 7 10 10 10 8 4 5 4 4 4 4 9 7 10 9 6 6 10 13 13 15
5 6 7 9 11 12 12 11 10 8 7 7 7 8 11 17 10 9 19 22 21 21 19 16 7 9 10 9 9 9 8 9 10 8 9 9 8 10 10 8 7 7 10 7 12
6 6 6 7 8 10 10 9 8 7 6 7 8 8 7 4 7 10 17 21 21 21 20 18 14 16 9 3 1 5 6 3 4 10 8 10 8 10 8 10 9 7 9 6 7
7 6 5 6 7 8 9 9 9 9 9 10 10 9 6 6 6 9 18 18 17 16 17 9 15 18 13 2 9 13 11 9 6 6 11 7 6 11 8 8 9 9 7 6 5
7 6 5 5 7 9 11 11 10 9 12 12 15 12 13 10 7 13 20 19 17 16 14 5 12 16 7 4 10 6 6 7 6 4 12 7 8 11 10 10 14 13 10 6 7
8 6 5 5 7 10 12 12 9 7 12 13 15 14 13 13 13 14 13 13 14 16 9 10 16 9 4 7 8 6 7 8 7 1 9 11 16 16 15 21 12 14 13 5 4
8 7 6 6 9 12 14 13 9 10 10 14 11 9 9 10 11 10 10 11 15 12 8 6 9 4 9 9 10 10 11 6 12 7 7 12 19 11 11 14 13 13 14 12 5
9 8 7 8 12 17 17 9 9 7 5 8 12 10 9 7 8 10 11 7 12 11 4 6 4 7 9 6 3 3 2 4 3 7 8 9 7 7 7 10 12 11 10 10 7
10 10 9 10 13 19 17 9 8 7 2 9 6 9 12 10 11 6 8 6 7 12 5 9 7 4 3 5 8 3 3 7 9 7 9 7 5 7 11 10 7 7 9 10 9
10 11 11 13 14 16 16 10 9 1 2 7 9 13 17 15 11 10 10 10 5 9 15 13 11 10 3 8 5 7 9 11 14 14 3 6 3 9 3 8 9 9 9 12 15
11 13 14 16 16 14 12 10 5 1 8 5 8 12 15 14 10 12 14 14 6 6 10 10 13 12 8 8 8 8 7 5 3 2 5 7 5 6 3 5 6 8 8 9 21
11 13 16 17 17 15 14 13 2 8 4 3 8 8 15 16 12 11 11 9 8 9 10 7 4 11 15 13 4 8 6 4 2 2 4 6 5 4 8 8 7 8 6 8 12
11 14 17 17 17 13 16 12 6 7 12 10 8 9 12 17 10 11 15 11 7 5 6 2 4 4 4 11 11 4 5 5 4 1 1 7 14 13 15 10 8 4 6 8 8
10 14 16 16 15 14 16 9 7 12 6 8 6 7 13 14 16 10 8 5 10 12 8 3 1 7 3 5 3 4 4 6 3 3 1 2 8 16 19 14 12 14 10 7 4
10 13 14 16 15 14 17 14 11 6 2 2 3 5 6 10 18 19 9 9 12 9 7 1 4 3 4 6 6 4 5 3 4 1 6 2 2 8 14 11 7 7 7 7 9
14 17 12 13 12 13 15 10 10 2 2 3 1 5 10 10 11 12 16 9 9 5 4 1 4 10 2 6 5 3 6 10 2 3 3 3 4 12 10 13 6 7 9 9 9
11 14 15 13 8 8 8 8 7 0 5 8 5 7 7 11 9 13 13 13 8 4 1 3 4 7 3 11 7 2 4 4 4 2 0 5 6 21 18 11 10 10 13 12 7
6 8 10 9 8 8 5 7 3 5 7 4 9 7 14 11 8 12 18 8 7 5 0 5 5 7 4 1 5 6 6 7 7 5 4 7 10 21 16 13 13 16 14 11 11
7 6 7 6 7 9 7 4 3 11 11 8 8 9 7 10 10 13 14 10 6 7 5 3 4 9 2 4 8 11 14 11 10 11 12 13 14 19 16 16 15 14 14 15 16
8 6 8 6 3 7 4 2 3 1 12 13 9 11 9 7 5 11 12 12 11 6 4 4 5 5 8 10 12 14 16 14 13 12 13 10 15 15 13 11 11 10 11 14 16
9 5 8 6 12 10 8 11 14 6 9 10 6 4 6 7 7 8 9 10 9 8 7 8 9 10 8 6 9 6 3 5 9 8 10 16 13 16 12 13 14 15 17 18 20
Wind_Direction
186 190 191 186 183 180 174 181 184 190 195 202 212 208 191 189 181 159 151 154 147 126 107 94 59 27 206 220 164 103 125 111 95 89 63 108 81 80 17 313 320 296 314 241 177
199 205 204 202 199 199 201 207 215 216 223 215 209 215 205 197 184 164 163 175 170 141 113 89 78 104 145 184 162 134 113 91 87 77 48 77 46 34 10 2 333 312 292 218 170
212 217 219 221 219 220 222 228 231 233 235 235 224 211 210 200 186 172 173 189 180 162 113 71 41 79 139 177 152 146 76 80 91 92 70 60 46 24 22 20 349 328 325 274 155
222 227 232 236 238 238 240 242 243 243 243 243 236 219 203 198 185 181 181 188 186 168 118 55 41 83 130 150 133 96 122 106 100 106 99 45 20 15 24 11 23 22 53 96 165
229 231 235 241 244 246 248 249 251 250 249 247 241 227 203 194 185 190 186 190 198 173 132 143 96 93 90 140 131 105 134 234 230 50 183 311 4 343 25 7 48 41 60 112 139
248 237 238 241 243 247 249 252 255 254 250 246 238 225 201 185 193 188 189 191 184 171 165 189 129 95 90 157 169 161 198 217 205 226 217 244 299 310 345 359 15 50 45 61 120
284 256 242 242 243 243 247 249 250 248 242 236 224 211 194 181 202 203 191 192 187 183 185 205 186 112 121 134 177 204 186 216 231 208 221 218 262 306 289 308 342 44 45 40 55
292 280 259 244 241 238 239 244 246 237 219 206 192 189 178 203 196 182 194 190 200 197 205 210 195 147 168 182 196 217 239 253 241 237 246 236 298 327 281 291 318 3 30 28 45
287 283 273 249 236 228 226 226 215 201 188 168 159 160 175 192 199 193 185 186 200 208 204 211 225 192 192 224 353 247 229 265 279 220 242 250 290 322 298 282 289 343 24 10 38
274 278 272 248 226 213 201 196 188 176 163 146 140 141 153 151 168 173 160 184 190 199 196 214 207 195 203 257 334 328 324 299 275 227 216 250 253 312 302 280 288 297 343 23 19
262 265 261 238 209 196 184 180 174 172 164 151 147 140 128 115 146 166 162 170 168 171 161 161 190 197 165 296 328 305 290 272 254 252 227 267 286 309 284 272 266 273 279 18 43
252 248 242 220 193 185 175 171 172 171 161 163 159 152 142 126 127 155 167 163 158 148 156 168 181 173 277 332 309 262 282 289 262 296 242 267 289 298 294 288 294 279 281 323 338
241 233 222 201 182 174 170 178 170 162 165 174 162 158 158 142 132 127 126 156 149 165 167 203 147 293 302 299 270 265 286 293 296 294 240 273 287 283 295 261 262 275 271 271 314
233 219 207 189 179 175 182 160 152 139 163 183 188 199 204 151 165 154 136 130 184 157 188 246 214 309 310 265 272 275 70 327 5 251 257 274 278 254 241 237 246 250 255 266 268
222 211 198 186 184 186 192 184 158 143 103 157 178 169 172 147 145 160 170 180 197 191 238 210 236 284 293 268 277 268 300 291 288 285 298 282 237 290 252 214 226 246 251 259 242
213 203 193 184 186 187 196 189 166 152 63 159 166 166 166 155 171 176 187 198 227 243 250 233 241 265 238 249 255 270 285 286 278 284 278 154 257 28 73 223 245 247 240 243 232
206 197 191 186 184 181 183 176 167 75 133 174 188 175 168 168 177 184 187 200 226 224 243 261 261 253 235 231 233 252 291 330 334 10 220 232 71 25 69 261 251 241 229 234 227
201 194 191 188 180 182 174 165 174 119 157 346 204 192 190 191 201 216 213 213 208 224 277 303 7 219 228 225 253 225 266 226 244 221 286 70 81 109 116 167 240 227 239 247 208
196 190 191 185 180 176 171 189 124 98 72 50 178 210 212 202 213 225 222 227 231 234 247 277 29 187 232 232 247 296 275 275 219 269 89 115 100 115 117 118 147 164 169 166 191
184 184 189 180 180 180 180 181 122 112 46 74 136 222 240 217 213 224 226 289 216 206 220 275 3 84 108 218 75 335 272 261 236 143 217 194 166 147 158 150 144 138 146 129 100
155 164 173 181 186 187 197 201 156 77 81 24 350 264 218 187 223 229 216 174 165 174 194 155 307 286 359 50 25 359 52 254 249 203 159 170 122 156 173 166 187 219 236 250 303
128 128 149 172 196 203 213 220 225 27 79 46 226 194 219 159 148 149 179 162 169 187 203 224 267 288 326 146 151 99 51 36 16 230 204 178 166 156 177 170 197 277 284 291 303
140 134 140 162 187 216 222 219 217 123 102 119 162 123 170 184 164 127 161 165 183 218 239 316 288 292 287 205 199 326 7 356 334 329 221 169 190 181 184 212 236 259 266 273 257
155 139 136 163 171 179 210 190 196 220 170 182 146 144 157 145 150 186 203 184 204 225 212 327 311 244 237 173 291 303 303 285 263 265 231 241 203 191 199 215 220 242 247 250 243
141 136 125 112 163 199 203 181 157 182 205 195 210 202 155 132 174 172 190 188 208 246 258 297 217 210 209 299 295 288 287 274 263 262 253 267 218 205 208 210 216 215 228 236 250
170 131 117 115 152 203 171 138 144 190 209 216 217 226 233 244 205 183 190 207 226 239 251 238 232 231 272 278 278 278 279 281 256 257 265 235 193 198 209 215 232 240 232 229 246
202 165 156 111 156 148 133 139 138 175 153 149 152 215 260 237 196 181 198 213 229 238 236 256 258 274 282 287 302 253 303 228 231 229 227 194 204 193 206 225 237 248 256 260 265
Height
3156 3157 3158 3159 3161 3162 3162 3163 3164 3164 3165 3165 3166 3167 3168 3169 3170 3172 3174 3176 3176 3178 3179 3180 3180 3180 3179 3178 3179 3179 3181 3179 3178 3177 3176 3175 3175 3175 3174 3171 3168 3168 3167 3171 3171
3156 3157 3158 3159 3160 3161 3162 3163 3163 3164 3164 3165 3165 3166 3168 3169 3170 3172 3174 3174 3175 3177 3179 3179 3179 3178 3178 3179 3180 3179 3180 3179 3179 3178 3177 3176 3176 3174 3174 3172 3169 3167 3166 3169 3172
3156 3156 3157 3158 3159 3160 3161 3162 3162 3163 3164 3164 3164 3165 3166 3168 3170 3171 3173 3174 3176 3177 3178 3178 3177 3177 3178 3178 3180 3181 3180 3180 3179 3179 3178 3176 3175 3174 3174 3174 3169 3167 3167 3169 3172
3154 3155 3156 3157 3158 3159 3160 3160 3161 3161 3162 3162 3163 3163 3165 3167 3171 3171 3172 3173 3175 3177 3178 3178 3178 3177 3177 3178 3180 3181 3180 3180 3179 3179 3178 3177 3176 3175 3175 3174 3171 3167 3166 3169 3173
3153 3153 3154 3155 3156 3157 3158 3158 3158 3159 3160 3160 3161 3161 3163 3165 3168 3170 3171 3172 3174 3177 3177 3177 3178 3177 3177 3180 3181 3181 3180 3181 3180 3179 3179 3178 3177 3176 3176 3174 3173 3171 3169 3169 3172
3151 3151 3152 3152 3153 3154 3155 3155 3156 3156 3157 3157 3158 3159 3161 3164 3165 3167 3170 3171 3174 3176 3176 3177 3178 3177 3178 3180 3181 3180 3180 3181 3181 3180 3178 3178 3178 3177 3177 3175 3175 3174 3172 3172 3173
3149 3148 3149 3149 3150 3151 3152 3153 3153 3154 3155 3155 3156 3158 3160 3163 3163 3166 3169 3171 3172 3173 3175 3176 3178 3178 3179 3180 3181 3181 3181 3181 3180 3179 3179 3179 3178 3176 3177 3176 3176 3175 3174 3174 3175
3147 3147 3146 3147 3148 3149 3150 3151 3151 3152 3153 3154 3155 3157 3158 3159 3162 3164 3166 3169 3170 3172 3174 3176 3178 3178 3179 3179 3180 3180 3180 3179 3179 3179 3179 3180 3178 3177 3176 3176 3175 3175 3175 3175 3176
3145 3145 3145 3145 3145 3146 3148 3149 3150 3151 3152 3153 3155 3156 3158 3159 3161 3162 3164 3167 3169 3171 3174 3176 3178 3178 3179 3180 3180 3179 3179 3179 3178 3178 3179 3179 3177 3176 3175 3175 3175 3176 3177 3177 3178
3143 3143 3143 3143 3144 3145 3146 3147 3149 3150 3152 3153 3155 3158 3158 3159 3159 3161 3162 3166 3168 3170 3174 3175 3175 3176 3179 3180 3179 3177 3177 3177 3177 3177 3178 3178 3176 3175 3174 3174 3176 3176 3177 3178 3178
3141 3141 3141 3141 3142 3143 3145 3147 3151 3153 3151 3153 3154 3155 3157 3158 3159 3160 3163 3165 3167 3169 3172 3172 3174 3176 3179 3179 3178 3177 3177 3176 3177 3177 3177 3176 3175 3174 3173 3174 3174 3174 3176 3177 3179
3139 3140 3140 3140 3141 3143 3145 3147 3149 3151 3153 3153 3154 3155 3157 3158 3160 3162 3164 3166 3167 3169 3170 3173 3173 3177 3177 3177 3176 3175 3175 3175 3175 3175 3176 3175 3173 3173 3171 3170 3172 3174 3175 3177 3178
3137 3138 3139 3139 3141 3143 3144 3146 3147 3149 3152 3154 3155 3156 3158 3160 3161 3163 3165 3166 3168 3169 3171 3172 3174 3175 3175 3174 3174 3173 3174 3173 3173 3174 3175 3174 3170 3170 3170 3168 3171 3172 3174 3177 3179
3135 3136 3137 3138 3142 3142 3143 3145 3148 3150 3152 3154 3155 3157 3158 3159 3161 3163 3165 3168 3168 3170 3171 3171 3172 3172 3172 3171 3172 3172 3172 3172 3171 3172 3172 3171 3169 3167 3167 3168 3170 3172 3173 3176 3179
3133 3134 3136 3138 3139 3141 3144 3145 3148 3150 3152 3155 3155 3155 3157 3160 3162 3163 3165 3166 3167 3169 3172 3171 3170 3170 3170 3171 3171 3172 3171 3170 3170 3169 3169 3168 3168 3164 3164 3167 3170 3172 3172 3175 3178
3131 3133 3135 3136 3138 3141 3143 3146 3150 3152 3151 3153 3153 3155 3157 3158 3160 3161 3163 3166 3167 3168 3168 3167 3168 3168 3168 3169 3170 3170 3169 3168 3166 3166 3166 3164 3165 3163 3163 3166 3168 3170 3171 3173 3178
3129 3131 3133 3135 3138 3141 3144 3148 3151 3149 3151 3153 3153 3154 3157 3158 3159 3160 3162 3164 3166 3168 3167 3167 3165 3166 3166 3167 3168 3168 3168 3167 3167 3166 3165 3163 3164 3166 3164 3166 3168 3168 3170 3170 3173
3127 3130 3132 3135 3138 3141 3145 3149 3149 3148 3149 3151 3152 3154 3156 3158 3159 3160 3162 3164 3165 3167 3166 3165 3165 3162 3163 3165 3167 3167 3167 3167 3169 3168 3163 3163 3166 3169 3165 3165 3167 3168 3169 3170 3173
3126 3129 3131 3135 3138 3142 3146 3147 3147 3148 3150 3150 3152 3155 3155 3157 3159 3160 3162 3164 3166 3166 3167 3165 3164 3162 3164 3165 3167 3165 3165 3165 3164 3163 3163 3166 3169 3170 3168 3169 3168 3167 3170 3171 3174
3125 3128 3131 3135 3139 3142 3146 3145 3147 3148 3149 3150 3152 3154 3154 3156 3158 3159 3161 3162 3162 3164 3164 3165 3164 3163 3163 3165 3165 3164 3164 3164 3163 3165 3166 3164 3166 3166 3170 3170 3170 3169 3170 3172 3175
3126 3129 3132 3135 3139 3143 3144 3145 3147 3148 3148 3149 3150 3152 3152 3153 3154 3157 3161 3163 3162 3163 3164 3164 3165 3166 3165 3165 3163 3164 3162 3161 3162 3162 3162 3166 3166 3168 3169 3170 3169 3170 3171 3171 3172
3128 3130 3132 3136 3140 3141 3143 3145 3146 3148 3148 3148 3149 3150 3151 3151 3153 3155 3158 3161 3162 3163 3163 3162 3163 3163 3165 3163 3163 3162 3162 3161 3160 3162 3160 3161 3165 3165 3169 3168 3168 3168 3168 3169 3169
3130 3131 3132 3135 3138 3140 3143 3144 3145 3147 3147 3148 3149 3149 3148 3150 3153 3154 3155 3159 3160 3162 3162 3162 3162 3162 3162 3164 3161 3160 3161 3161 3161 3160 3159 3159 3162 3162 3166 3167 3166 3166 3166 3166 3167
3132 3132 3133 3135 3137 3139 3141 3142 3144 3145 3147 3148 3149 3149 3148 3150 3150 3151 3153 3158 3158 3159 3160 3160 3160 3161 3162 3162 3161 3160 3160 3160 3159 3158 3157 3157 3157 3159 3161 3165 3165 3165 3163 3164 3165
3132 3133 3134 3135 3137 3137 3139 3140 3140 3142 3144 3146 3148 3150 3150 3150 3150 3150 3154 3156 3157 3157 3159 3160 3160 3160 3161 3161 3159 3159 3157 3157 3156 3155 3154 3153 3154 3156 3158 3161 3163 3164 3162 3162 3162
3133 3133 3134 3135 3135 3136 3138 3139 3139 3141 3143 3145 3147 3149 3149 3150 3151 3151 3153 3154 3155 3156 3157 3158 3159 3158 3159 3158 3157 3155 3153 3152 3152 3152 3151 3150 3152 3154 3156 3158 3159 3161 3162 3162 3162
3132 3134 3135 3135 3135 3137 3137 3138 3139 3141 3142 3144 3146 3147 3148 3149 3149 3151 3152 3153 3154 3154 3155 3156 3156 3155 3154 3154 3153 3152 3150 3149 3148 3148 3148 3148 3151 3152 3154 3155 3155 3156 3156 3156 3156